Lapse_Rate
7.8 7.8 7.6 7.5 7.6 7.3 7.0 7.0 6.7 7.3 7.0 7.0 6.7 6.7 6.6 6.6 6.5 6.4 6.2 6.0 5.9 5.8 5.9 6.1 6.0 5.8 5.6 5.8 5.8 5.6 5.4 5.0 4.9 4.8 4.7 4.6 4.5 4.5 4.7 4.9 5.1 5.5 5.7 6.2
7.7 7.6 7.5 7.3 7.3 7.3 7.2 7.2 7.0 7.0 7.5 7.1 6.9 6.8 6.7 6.6 6.5 6.2 6.0 5.8 5.7 5.7 6.0 6.1 5.7 5.6 5.8 5.8 5.7 5.5 5.2 5.0 4.7 4.6 4.6 4.5 4.4 4.6 4.7 4.9 5.4 5.6 6.1 6.4
7.4 7.6 7.4 7.2 8.1 8.1 8.0 7.7 7.5 7.2 7.5 7.2 7.1 6.8 6.7 6.6 6.5 6.2 6.0 5.8 5.7 5.8 5.8 5.9 5.9 5.9 5.9 5.9 5.6 5.3 4.9 4.6 4.5 4.5 4.5 4.4 4.4 4.6 4.9 5.4 5.7 6.1 6.3 6.6
7.2 7.1 4.8 7.9 8.1 8.0 8.0 7.8 7.7 7.4 7.3 7.1 6.8 6.6 6.5 6.4 6.2 6.2 5.9 5.8 5.9 6.1 6.0 6.2 6.0 5.8 5.8 5.5 5.1 4.8 4.6 4.7 4.6 4.4 4.4 4.5 4.7 5.1 5.4 5.7 6.1 6.3 6.5 6.7
7.1 6.8 7.1 7.6 7.9 8.0 8.0 7.8 7.8 7.4 7.1 6.9 6.8 6.6 6.7 6.3 6.1 6.0 5.9 5.9 6.2 6.1 6.0 5.9 5.6 5.6 5.5 5.0 4.7 4.8 4.9 4.7 4.5 4.5 4.7 4.8 5.1 5.5 5.7 6.1 6.3 6.4 6.6 6.7
6.9 6.6 4.2 7.6 7.9 7.8 7.8 7.1 7.8 7.5 7.1 7.0 6.8 6.5 6.6 6.0 6.0 6.0 6.0 6.2 6.2 5.9 5.7 5.6 5.4 5.2 4.9 4.8 4.9 5.0 4.9 4.9 4.8 4.8 4.8 5.2 5.6 5.7 6.1 6.3 6.5 6.6 6.8 6.9
6.6 6.3 6.6 7.4 7.6 7.7 7.0 7.7 7.2 7.2 7.0 6.8 6.7 6.4 6.2 6.2 5.9 6.0 6.1 6.0 5.7 5.5 5.3 5.3 5.2 5.0 4.9 5.1 5.2 5.2 5.1 5.0 4.9 4.8 5.1 5.7 5.7 6.0 6.3 6.4 6.5 6.8 6.9 7.1
6.9 6.5 6.4 7.6 7.5 7.3 7.5 7.2 6.9 6.9 6.9 6.6 6.4 6.2 6.1 5.8 5.9 6.0 5.9 5.7 5.4 5.3 5.4 5.3 5.1 5.0 5.1 5.3 5.4 5.3 5.1 5.0 4.8 5.2 5.6 5.9 6.0 6.2 6.4 6.5 6.7 6.9 6.9 6.9
7.1 7.3 7.4 7.3 7.2 7.1 7.0 6.8 6.7 6.6 6.6 6.4 6.4 6.4 6.1 5.9 5.9 5.9 5.7 5.5 5.3 5.4 5.4 5.1 5.0 5.3 5.5 5.5 5.4 5.3 5.1 4.8 5.0 5.6 5.8 6.1 6.2 6.3 6.5 6.7 6.9 7.0 7.0 6.9
6.9 7.2 7.3 7.1 6.8 6.8 6.7 6.7 6.6 6.5 6.4 6.3 6.4 6.2 6.1 5.9 5.9 5.8 5.5 5.4 5.4 5.5 5.2 5.3 5.4 5.5 5.6 5.4 5.5 5.2 4.9 5.0 5.5 5.9 6.1 6.2 6.4 6.4 6.6 6.8 7.0 7.1 7.0 6.9
6.7 7.2 7.0 7.0 7.0 6.9 6.7 6.8 6.7 6.5 6.4 6.4 6.3 6.2 6.1 6.2 6.1 5.8 5.4 5.1 5.4 5.4 5.4 5.3 5.5 5.6 5.4 5.5 5.4 5.0 5.1 5.5 5.9 6.1 6.3 6.5 6.7 6.7 6.9 6.9 7.1 7.1 7.0 6.9
6.7 6.9 6.4 6.7 6.9 7.0 6.9 6.8 6.6 6.5 6.5 6.4 6.2 6.2 6.5 6.2 5.7 5.7 4.7 5.0 5.3 5.4 5.4 5.5 5.6 5.6 5.6 5.5 5.2 5.2 5.6 5.9 6.3 6.4 6.5 6.9 7.0 6.9 7.1 7.1 7.0 7.2 7.2 7.0
6.8 6.8 6.7 6.8 6.8 6.7 6.7 6.8 6.6 6.5 6.4 6.1 6.2 6.7 6.4 5.9 5.4 4.5 4.4 4.7 5.3 5.4 5.4 5.4 5.7 5.7 5.5 5.3 5.3 5.6 5.9 6.3 6.6 6.6 6.8 7.1 7.2 7.3 7.3 7.2 7.1 7.1 7.1 7.0
7.3 7.1 7.0 7.0 6.8 6.8 6.8 6.6 6.5 6.3 6.2 6.3 6.7 6.5 6.3 5.3 4.5 4.4 4.6 5.2 5.5 5.3 5.4 5.6 5.8 5.5 5.4 5.5 5.8 6.0 6.3 6.6 6.9 6.9 7.1 7.3 7.3 7.4 7.5 7.4 7.4 7.2 7.2 7.1
7.3 7.2 6.9 6.7 6.7 6.7 6.6 6.5 6.3 6.2 6.1 6.6 6.5 5.7 5.5 4.6 4.4 4.5 5.3 5.3 5.3 5.4 5.7 5.8 5.6 5.5 5.6 5.9 6.1 6.3 6.5 6.8 7.0 7.2 7.4 7.5 7.5 7.5 7.6 7.6 7.6 7.4 7.3 7.2
6.9 6.8 6.7 6.6 6.6 6.6 6.2 6.2 6.2 6.3 6.6 6.2 5.7 5.0 5.0 4.6 4.6 5.2 5.4 5.4 5.5 5.7 5.9 5.7 5.7 5.7 6.0 6.2 6.4 6.5 6.8 7.0 7.1 7.4 7.5 7.5 7.6 7.6 7.7 7.8 7.7 7.5 7.4 7.2
6.7 6.7 6.7 6.6 6.4 6.1 5.7 6.2 5.9 5.8 5.7 5.4 5.0 5.1 4.8 4.9 5.3 5.8 5.6 5.7 5.9 5.8 5.6 5.8 5.8 6.0 6.3 6.4 6.5 6.7 7.0 7.2 7.3 7.5 7.6 7.5 7.6 7.6 7.8 7.8 7.7 7.6 7.4 7.3
6.4 6.4 6.2 5.9 6.2 6.1 5.9 5.8 5.3 5.3 5.2 5.0 4.7 5.0 5.3 5.3 5.5 5.3 5.7 6.0 5.8 5.8 5.9 5.9 6.1 6.4 6.5 6.6 6.7 7.0 7.4 7.5 7.5 7.6 7.7 7.6 7.6 7.7 7.8 7.8 7.8 7.6 7.5 7.3
6.0 5.8 5.7 5.8 5.8 5.7 5.4 5.2 4.8 4.8 4.5 4.6 4.9 5.3 5.5 5.6 5.7 5.9 5.9 6.1 6.2 6.0 6.3 6.2 6.4 6.5 6.7 6.8 6.7 7.3 7.6 7.8 7.8 7.9 7.9 7.8 7.7 7.7 7.8 7.8 7.8 7.7 7.6 7.5
5.3 5.2 5.2 5.2 5.0 5.1 5.0 4.9 4.9 4.7 4.7 5.2 5.7 6.0 6.0 6.0 5.9 6.1 6.5 6.5 6.3 6.3 6.5 6.4 6.4 6.6 6.5 6.8 6.8 7.5 7.8 8.1 8.1 8.1 8.1 8.0 7.9 7.8 7.7 7.7 7.7 7.7 7.6 7.6
5.0 5.1 5.1 5.2 5.3 5.2 5.2 5.2 5.4 5.5 5.7 5.9 5.8 6.0 5.9 6.1 6.5 6.8 6.6 6.6 6.5 6.5 6.6 6.5 6.6 6.6 6.8 6.8 6.9 7.6 7.8 8.1 8.2 8.3 8.2 8.1 8.0 7.9 7.8 7.6 7.6 7.6 7.7 7.7
5.2 5.3 5.4 5.4 5.6 5.8 5.7 5.6 5.6 5.6 5.7 5.9 6.0 6.3 6.8 6.9 6.7 6.7 6.7 6.6 6.7 6.6 6.6 6.7 6.8 6.9 7.0 6.9 6.9 7.5 7.7 8.0 8.2 8.3 8.3 8.2 8.1 7.9 7.8 7.7 7.6 7.6 7.6 7.7
5.7 5.9 5.9 5.8 5.9 6.0 6.1 6.2 6.1 6.1 6.4 6.8 6.9 6.8 6.7 6.7 6.7 6.7 6.7 6.6 6.5 6.5 6.7 6.7 6.9 7.0 6.9 6.9 6.9 7.3 7.6 7.8 8.1 8.2 8.2 8.2 8.1 7.9 7.7 7.6 7.6 7.6 7.6 7.7
5.9 5.8 5.9 6.0 5.9 5.9 6.2 6.8 6.9 6.8 6.8 6.7 6.6 6.5 6.6 6.8 7.0 6.7 6.5 6.4 6.5 6.4 6.6 6.6 6.6 6.7 6.7 6.8 6.8 7.1 7.3 7.6 7.9 8.1 8.1 8.1 8.1 7.9 7.7 7.5 7.4 7.3 7.5 7.5
6.1 6.1 6.3 6.5 6.6 6.7 6.7 6.8 6.8 6.6 6.7 6.7 6.8 6.9 6.9 6.9 6.9 6.9 6.5 6.4 6.3 6.3 6.4 6.4 6.4 6.5 6.6 6.6 6.6 6.9 7.2 7.5 7.7 8.0 8.1 8.1 8.1 8.0 7.9 7.7 7.5 7.4 7.3 7.3
6.5 6.6 6.6 6.6 6.6 6.5 6.5 6.5 6.6 6.7 6.8 7.1 7.3 7.2 7.1 7.0 6.7 6.6 6.5 6.5 6.2 6.2 6.2 6.2 6.3 6.4 6.4 6.4 6.5 6.9 7.2 7.4 7.7 7.9 8.0 8.1 8.1 8.0 7.9 7.8 7.7 7.4 7.3 7.2
6.6 6.5 6.4 6.3 6.3 6.4 6.6 6.7 6.8 7.0 7.0 7.0 7.0 6.9 6.9 6.9 6.8 6.7 6.6 6.4 6.2 6.4 6.3 6.1 6.1 6.1 6.1 6.3 6.5 6.8 7.1 7.3 7.6 7.9 8.0 8.0 8.0 8.1 8.2 8.0 7.8 7.5 7.3 7.0
Wind_Speed
2 3 2 2 4 6 6 5 5 5 7 6 11 11 9 8 7 7 7 6 6 5 5 5 6 6 6 5 4 3 4 4 5 5 6 6 6 6 6 6 6 4 5 4
1 4 5 3 6 6 4 4 7 4 8 6 3 8 8 10 9 7 7 7 6 6 8 9 7 7 6 5 5 3 5 6 6 5 6 6 6 6 6 6 6 6 3 4
4 3 5 6 9 9 5 5 6 6 8 6 4 9 12 9 9 8 7 7 7 7 7 7 7 6 6 5 4 4 5 6 6 6 6 7 6 6 6 6 5 5 4 1
2 3 2 6 2 3 5 4 7 3 5 8 4 3 6 6 8 8 7 6 6 6 5 5 2 3 3 4 5 5 6 6 6 6 6 6 6 7 6 5 5 3 2 3
4 3 6 6 5 7 8 8 9 7 4 5 4 4 4 7 6 7 7 7 5 3 2 1 3 1 3 6 5 5 7 6 6 5 6 6 7 7 6 3 1 2 3 4
3 3 6 7 3 3 3 5 8 8 8 8 6 3 8 9 8 8 7 3 2 3 3 4 2 1 3 5 6 7 7 7 6 5 5 6 6 6 3 2 3 3 4 4
3 3 8 8 2 2 5 7 6 9 8 8 6 6 2 4 5 4 4 6 6 5 4 3 4 4 5 5 6 6 6 6 6 6 5 5 5 3 4 2 3 2 4 3
3 2 7 6 3 7 6 2 6 8 8 13 6 7 5 6 8 8 8 7 5 5 4 2 2 2 4 5 6 6 6 6 7 6 3 3 5 4 2 3 4 2 2 0
9 6 4 6 5 4 2 3 5 7 7 12 9 7 8 6 9 8 7 6 4 4 1 2 4 2 3 5 6 6 6 7 7 6 3 4 4 4 1 2 2 3 2 2
2 4 8 8 6 6 6 8 4 6 7 10 7 8 6 7 7 7 5 4 3 2 2 4 5 4 4 6 5 6 6 6 6 4 4 3 3 2 3 2 2 3 2 3
5 9 6 9 8 10 7 6 5 4 7 8 9 7 11 9 7 5 4 3 2 1 2 5 5 5 5 6 5 5 5 4 6 5 4 3 3 3 3 3 4 3 3 3
6 10 5 7 5 2 7 9 8 7 6 5 6 10 9 6 5 4 3 2 0 1 3 5 5 5 6 5 5 5 5 4 5 5 4 3 3 3 6 9 8 9 10 6
8 2 6 6 4 3 5 5 6 7 6 10 9 10 10 5 4 5 4 2 3 3 4 5 5 5 6 5 5 5 5 6 5 5 3 2 2 3 3 4 6 6 7 10
7 2 5 4 5 1 4 7 12 12 12 13 12 8 5 3 4 5 5 4 3 3 4 5 5 6 6 5 5 6 6 7 4 4 3 3 3 3 3 3 3 3 4 4
6 7 3 3 8 9 10 13 15 13 13 10 4 6 5 5 4 5 5 3 3 4 4 5 5 7 6 5 6 7 6 5 4 3 3 4 3 3 3 3 4 3 2 3
4 5 7 11 11 12 14 14 17 11 5 2 4 3 5 3 4 5 3 4 3 3 5 4 6 8 6 6 6 6 7 7 6 3 3 3 3 3 3 4 4 4 3 3
3 6 8 12 12 13 14 10 9 5 6 5 5 3 4 3 3 4 4 3 4 6 5 5 7 6 6 6 6 5 6 6 6 3 5 5 5 4 4 3 4 4 4 4
16 16 15 14 13 10 6 4 4 4 3 2 1 2 2 3 4 5 4 3 3 5 6 7 6 5 6 6 6 5 6 5 5 6 6 6 6 5 4 4 4 4 5 3
16 15 12 10 5 4 1 1 0 1 1 0 1 4 4 5 4 4 3 4 4 5 5 4 5 6 7 6 6 4 6 7 7 6 6 6 4 4 4 4 4 5 5 5
9 6 6 4 2 1 1 1 2 3 2 1 2 4 5 5 4 4 3 5 6 5 5 6 6 6 8 8 8 4 6 8 8 6 5 4 4 5 5 6 5 5 5 5
5 4 3 3 3 3 2 1 2 3 2 2 2 4 6 8 6 6 5 6 5 6 6 6 4 5 5 6 6 6 7 8 7 6 5 5 6 6 6 7 7 6 6 6
1 1 1 2 2 4 3 2 2 4 4 4 6 7 6 8 5 6 8 9 6 7 4 3 4 7 6 8 6 7 6 7 7 6 5 6 6 7 8 8 8 8 8 7
3 2 2 2 3 4 5 4 5 5 6 5 5 5 4 5 5 4 7 4 5 6 3 4 7 7 7 6 7 7 5 6 6 6 5 5 7 7 8 8 8 8 8 9
2 1 1 1 2 3 7 8 7 5 4 6 6 6 4 4 4 5 6 7 6 6 6 5 5 6 6 4 5 6 7 7 4 5 6 8 7 7 7 8 8 8 9 10
4 5 5 6 6 5 7 8 8 6 8 8 9 9 6 4 6 7 5 5 8 8 4 5 4 7 4 3 3 4 5 6 6 7 7 8 9 9 8 8 9 9 9 9
6 5 4 5 4 5 6 7 7 8 9 10 9 8 7 5 5 5 6 7 7 5 1 3 3 3 2 2 3 3 3 5 5 5 6 6 7 8 9 10 12 10 9 9
5 8 7 7 7 9 9 9 9 9 9 9 10 7 6 8 8 8 8 5 1 2 3 3 3 3 2 3 3 4 4 3 4 6 6 7 7 8 9 10 11 12 12 8
Wind_Direction
74 18 329 274 202 174 189 186 177 245 213 234 210 196 176 159 154 162 180 186 190 183 178 190 205 218 227 241 245 247 261 279 282 292 307 311 301 295 292 287 272 276 289 296
206 0 6 290 262 221 217 209 258 275 276 209 156 118 156 171 172 184 193 199 190 183 190 208 213 219 230 247 259 257 271 285 288 310 309 302 303 310 304 301 299 296 320 324
261 358 338 333 223 200 195 189 165 201 239 161 178 184 182 177 185 195 200 195 187 200 212 214 221 213 236 264 286 279 279 292 291 299 297 294 302 300 296 290 290 294 329 59
192 23 7 240 283 227 209 219 206 239 216 195 186 108 160 193 189 203 203 202 210 224 233 231 218 214 274 298 287 280 285 288 293 292 291 299 298 296 291 276 284 301 113 111
142 195 295 305 198 171 175 259 193 205 173 142 94 68 281 207 197 198 202 209 216 228 200 198 196 286 307 301 289 286 283 290 282 285 300 303 304 303 299 287 311 155 152 131
99 143 220 240 259 173 117 288 194 165 173 156 128 149 242 186 179 198 193 162 179 133 105 113 57 6 6 326 314 291 286 282 283 291 295 299 297 298 277 282 228 152 115 109
137 235 288 242 211 170 104 245 160 174 175 152 187 197 171 147 132 137 120 113 102 102 104 73 69 26 331 311 305 297 300 302 297 297 289 288 301 290 281 248 149 122 124 133
108 72 280 166 82 164 218 266 186 189 186 193 182 148 143 125 122 125 126 116 105 92 80 70 13 4 323 313 305 312 314 304 297 283 274 301 305 305 323 150 142 145 138 74
184 216 230 232 228 257 178 212 218 195 197 197 170 178 165 148 143 134 130 122 106 104 41 334 339 337 309 293 310 311 311 310 308 291 290 309 296 284 214 148 155 204 211 228
77 260 238 234 255 230 215 227 218 225 202 173 171 143 125 128 138 129 133 134 121 86 353 319 315 295 277 303 314 314 305 315 319 299 299 302 292 244 191 186 211 236 222 239
261 279 283 264 235 248 243 222 224 205 187 171 133 138 150 147 135 134 142 129 113 88 295 290 300 299 312 312 318 306 299 308 320 293 268 280 248 221 214 227 205 217 228 211
231 237 204 249 262 207 202 222 207 166 135 108 124 133 112 98 104 113 165 155 100 280 281 291 308 313 306 303 307 296 281 280 297 297 267 249 240 262 256 244 260 245 238 202
251 260 212 260 291 236 233 221 166 140 120 121 114 115 106 131 122 185 172 189 231 260 288 305 307 291 279 285 293 287 278 286 290 289 250 225 220 228 254 306 290 274 272 232
247 138 283 218 251 218 143 102 94 91 99 99 94 75 85 133 156 177 205 223 227 265 281 285 279 284 287 288 284 279 273 262 265 268 245 235 227 231 212 213 244 283 286 267
292 226 277 63 69 73 90 97 88 89 88 65 91 135 168 184 198 218 213 215 230 255 271 278 287 288 291 288 281 278 278 270 261 252 245 237 216 225 232 242 234 244 297 295
359 50 68 86 89 88 92 92 99 101 106 209 218 176 198 190 217 226 240 208 200 256 280 276 278 279 294 288 280 284 282 262 259 254 236 213 217 223 245 240 240 238 245 243
115 76 89 89 89 82 77 92 112 167 206 211 221 222 192 203 251 254 249 232 221 251 256 251 264 283 286 283 278 285 287 266 255 237 231 229 224 223 228 223 236 242 242 234
70 72 76 88 93 93 103 178 188 198 219 255 117 134 191 216 244 267 272 291 289 288 272 261 255 261 271 274 278 285 283 266 267 261 240 225 236 226 224 224 234 233 248 254
71 78 80 78 77 111 94 93 271 178 167 213 22 266 257 259 254 284 298 281 272 271 273 266 268 265 268 263 270 265 274 275 271 263 247 228 237 235 228 230 239 238 235 245
86 89 97 96 79 95 69 9 8 331 317 192 247 263 299 300 265 262 238 260 261 247 281 284 279 271 273 278 272 262 276 279 272 259 246 228 226 242 235 236 240 240 236 234
84 83 76 56 20 343 297 287 272 295 277 211 286 280 271 281 275 279 277 286 279 266 270 279 280 284 281 278 278 277 279 280 268 258 246 230 234 237 239 241 244 243 248 236
37 42 353 324 351 329 328 347 326 303 290 269 252 251 256 276 276 264 247 243 273 253 257 270 276 272 280 293 285 277 280 286 279 265 253 246 240 244 244 240 239 241 238 235
328 329 343 302 278 285 298 248 243 237 261 265 270 271 244 263 262 260 285 239 237 249 254 263 270 277 282 308 302 287 282 294 302 300 273 261 264 263 261 258 255 251 246 237
250 19 288 291 265 9 360 338 333 314 262 287 276 265 256 279 277 229 249 265 249 257 261 261 265 278 308 300 318 328 323 296 287 296 292 285 280 271 267 267 266 260 255 252
31 20 21 23 25 7 346 337 328 325 323 317 314 308 297 259 265 289 282 269 268 264 254 268 26 34 26 352 329 338 336 335 343 340 340 335 331 318 295 272 262 260 260 254
38 31 17 18 11 352 350 343 335 331 328 320 313 311 304 292 273 278 286 283 277 262 154 84 66 50 25 354 335 326 324 332 339 334 327 320 319 317 314 309 306 281 257 255
39 23 12 5 8 360 351 338 329 328 325 315 309 310 296 297 286 281 274 289 330 106 85 75 56 37 17 1 355 342 330 321 324 328 321 318 316 311 308 300 299 293 291 253